Location: Ciserano
(45.5833°N, 9.6000°E)
Time: 07:55:15
(UTC+00:00)

Cosmos 1295 Rocket - Pass Details

Date: 24 April 2021
Orbit: 944 x 993 km, 82.9° (Epoch: 13 May)

Event Time Altitude Azimuth Distance (km) Brightness Sun altitude
Rises 22:24:00 0° 358° (N) 3,686 8.6 -29.9°
Reaches altitude 10° 22:26:47 10° 8° (N) 2,741 7.6 -30.0°
Maximum altitude 22:32:27 34° 72° (ENE) 1,567 5.5 -30.3°
Enters shadow 22:32:43 34° 77° (ENE) 1,571 5.5 -30.3°
